Location: Dumpton Point
(51.3500°N, 1.4433°E)
Time: 17:32:25
(UTC+00:00)

Vanguard 3 - Pass Details

Date: 28 April 2021
Orbit: 507 x 3262 km, 33.4° (Epoch: 16 May)

Event Time Altitude Azimuth Distance (km) Brightness Sun altitude
Rises 00:32:17 0° 240° (WSW) 4,504 - -23.9°
Reaches altitude 10° 00:37:34 10° 217° (SW) 2,906 - -23.7°
Maximum altitude 00:40:33 13° 190° (S) 2,342 - -23.6°
Drops below altitude 10° 00:43:02 10° 162° (SSE) 2,309 - -23.5°
Sets 00:46:19 0° 133° (SE) 2,924 - -23.4°
